Regional Weather Roundup
Issued by NWS Kansas City/Pleasant Hill, MO

Home | Current Version | Previous Version | Graphics & Text | Print | Product List | Glossary Off
Versions: 1 2 3 4 5 6 7 8 9 10 11 12 13 14 15 16 17 18 19 20 21 22 23 24 25 26 27 28 29 30 31 32 33 34 35 36 37 38 39 40 41 42 43 44 45 46 47 48 49 50

000
ASUS43 KEAX 081610
RWREAX

WEATHER ROUNDUP FOR EASTERN KANSAS AND NORTHWEST MISSOURI
NATIONAL WEATHER SERVICE KANSAS CITY/PLEASANT HILL MO
1000 AM CST MON FEB 08 2016

KSZ040-057-103>105-MOZ028-029-037-043-081700-
...KANSAS CITY METROPOLITAN AREA...

CITY           SKY/WX    TMP DP  RH WIND       PRES   REMARKS
K.C. INTL      FLURRIES  30  18  60 N20G30    30.04R WCI  17
K.C. DOWNTOWN  CLOUDY    32  17  54 N15G35    30.05R WCI  22
LEES SUMMIT    CLOUDY    30  16  56 NW25G39   30.04R WCI  16
OLATHE - IXD   CLOUDY    31  17  56 NW24G32   30.07R WCI  17
OLATHE - OJC   CLOUDY    30  17  58 N20G30    30.06R WCI  17
LAWRENCE       CLOUDY    32  16  51 NW36G46   30.10R WCI  16

$$

MOZ001>008-011>017-020>025-030>033-038>040-044>046-053-054-081700-
...NORTHERN AND CENTRAL MISSOURI...

CITY           SKY/WX    TMP DP  RH WIND       PRES   REMARKS
ST. JOSEPH     LGT SNOW  29  20  69 N25G36    30.07R WCI  14
MOSBY          CLOUDY    30  19  64 NW18G32   30.05R WCI  18
WARRENSBURG    FLURRIES  30  21  69 NW18G26   30.03R WCI  18
WHITEMAN AFB   NOT AVBL
CLINTON        MIX PCPN  34  23  64 N20G31    30.03R WCI  22
SEDALIA        CLOUDY    30  18  60 NW23G38   30.00R WCI  17
WARSAW         NOT AVBL
CHILLICOTHE      N/A     25  16  68 NW20G28   30.00R WCI  11
KIRKSVILLE     LGT SNOW  20  11  68 NW20G31   29.92R WCI   4

$$

MOZ041-047>049-056>058-063>065-088>090-097-081700-
...EASTERN AND SOUTHERN MISSOURI...

CITY           SKY/WX    TMP DP  RH WIND       PRES   REMARKS
ST. LOUIS INTL CLOUDY    29  17  61 NW17G26   29.87R WCI  17
SPIRIT OF STL  CLOUDY    30  18  60 NW13G22   29.88R WCI  20
COLUMBIA       CLOUDY    27  15  61 NW25G36   29.92R WCI  12
JEFFERSON CITY CLOUDY    28  15  58 NW22G30   29.95R WCI  14
ROLLA          CLOUDY    27  16  63 NW16G30   29.89R WCI  15
OSAGE BEACH    CLOUDY    30  18  59 NW14G25   29.96S WCI  20
SPRINGFIELD    CLOUDY    34  20  56 NW20G32   29.99R WCI  23
BRANSON        CLOUDY    36  16  44 NW20G30   30.00R WCI  25
JOPLIN         CLOUDY    37  21  52 NW24G32   30.08R WCI  26
WEST PLAINS    CLOUDY    36  20  52 W18G36    29.92R WCI  26

$$

IAZ060-094-KSZ022-034>040-054-083-096-NEZ052-066-093-081700-
...KANSAS...SOUTHEAST NEBRASKA AND IOWA...

CITY           SKY/WX    TMP DP  RH WIND       PRES   REMARKS
TOPEKA         CLOUDY    33  16  49 NW28G40   30.13R WCI  20
MANHATTAN      CLOUDY    34  18  52 N10G24    30.19R WCI  26
EMPORIA        CLOUDY    35  16  45 NW31G48   30.14R WCI  22
CHANUTE        CLOUDY    38  18  44 NW25G39   30.12R WCI  27
WICHITA        MOSUNNY   39  15  37 NW25G45   30.23R WCI  28
OMAHA          FLURRIES  27  18  69 N33G40    30.08R WCI  10
LINCOLN        CLOUDY    29  18  63 NW21G37   30.14R WCI  16
FALLS CITY     CLOUDY    31  17  56 N23G44    30.08R WCI  18
LAMONI         FLURRIES  21  12  68 NW33G44   29.97R WCI   2
DES MOINES     LGT SNOW  18  10  71 N28G38    29.96R VSB 3/4 WCI  -1

$$




USA.gov is the U.S. government's official web portal to all federal, state and local government web resources and services.